Weather in Shugozero

Russia / Saint-Petersburg and Leningrad Oblast     59°55′42″N   34°12′24″E
temp.,
°C
wind,
m/s
gust,
m/s
humid.,
%
clouds,
%
prec.,
mm/h
press.,
hPa
HPBL,
m
20 april, tue
tue2000:00+3e3107075 0.0 1028277
03:00+1e397544 0.0 1028230
06:000ese310771 0.0 1027250
09:00+5ese49500 0.0 1026945
12:00+9se583025 0.0 10241642
15:00+10se573065 0.0 10221812
18:00+9se4844100 0.0 10211696
21:00+5se386294 0.0 1020259
21 april, wed
wed2100:00+4e31071100 0.0 1018291
03:00+3e397293 0.0 1016393
06:00+2e3985100 0.0 1013493
09:00+2ne3997100 1.3 1010459
12:00+2ene3897100 2.5 1006480
15:00+2e1498100 5.1 1004250
18:00+2wnw1199100 0.6 1003168
21:00+1wsw2499100 0.8 1003180
22 april, thu
thu2200:00+1sw3798100 0.2 1004371
03:00+1sw3798100 0.3 1006699
06:00+1s2697100 0.0 1007307
09:00+4sse369381 0.0 1007328
12:00+8s377981 0.0 1007909
15:00+12ssw466192 0.5 10081303
18:00+11s377164 0.6 1009627
21:00+6sse310914 0.6 1009212
23 april, fri
fri2300:00+5se3119410 0.1 1009266
03:00+4se269787 0.1 1010121
06:00+4se3897100 0.0 1009233
09:00+7se41190100 0.0 1008545
12:00+7sw3794100 0.7 1008655
15:00+5wsw3691100 1.3 1011639
18:00+5s2587100 0.0 1012392
21:00+3sse2395100 0.0 101355
24 april, sat
sat2400:00+3sse1192100 0.0 101221
03:00+2ese2393100 0.0 101161
06:00+3e2493100 0.0 1010105
09:00+3ne2495100 1.1 1009417
12:00+3n2597100 1.6 1007451
15:00+1nw2699100 7.0 1007253
18:00+3wnw2598100 1.1 1007537
21:00+3wnw2497100 1.1 1007324